User: anonymous   Login
Location: Fisheating Creek Campgrounds
(26.9333°N, 81.3167°W)
Time: 01:14:48
(UTC-04:00)
Language:

NATO 3D Rocket - Orbit

View from above orbital plane
View from above orbital plane
View from above satellite
View from above satellite

Ground track
Ground track

The orbit data is extracted from the following two-line orbital elements,

1 15392U 84115B   16120.83030495  .00000132  00000-0 -36248-4 0  9995
2 15392  21.4998  39.9503 1034622 246.3719 102.4788 12.45529194432432
Epoch (UTC): 29 April 2016 19:55:38
Eccentricity: 0.1034622
inclination: 21.4998°
perigee height: 670 km
apogee height: 2296 km
right ascension of ascending node: 39.9503°
argument of perigee: 246.3719°
revolutions per day: 12.45529194
mean anomaly at epoch: 102.4788°
orbit number at epoch: 43243

The dashed part of the orbit path shows where the satellite is in the earth's shadow,  

DLR